Wind_Speed
69 71 72 74 75 77 78 80 81 82 83 84 85 86 87 88 89 90 92 94 96 98 101 103 105 107 109 112 114 116 118 120 120 121 121 121 121 119 117 115 112 109 107 104 101 99 96 93 91 89 87 85 83 82 81 80 79 79 79 79 78 79 79 78 77 76 76 77 76 76 76 76 76 75 75 76 76 76 76 77 77 77 77 76 75
71 72 74 75 77 79 80 82 83 84 84 85 86 87 88 89 90 92 94 97 99 102 104 106 109 111 113 116 118 119 121 121 122 122 122 121 119 116 113 110 107 104 100 97 94 91 88 86 83 81 79 77 76 75 74 73 72 72 72 72 72 72 72 71 71 70 69 69 69 68 68 68 68 68 68 68 68 67 67 68 69 70 71 71 72
72 74 76 77 79 81 82 83 83 83 84 84 85 87 88 90 92 95 98 100 103 105 108 110 113 115 117 118 119 120 121 121 121 121 120 117 114 110 107 103 99 95 92 89 86 83 80 77 75 73 71 70 69 68 68 67 66 66 66 66 65 64 64 64 63 63 62 61 61 60 60 59 60 61 60 60 60 60 60 60 61 62 64 65 66
75 77 79 81 82 82 82 82 82 82 83 84 86 88 91 94 96 99 102 104 107 109 112 114 116 117 118 119 120 120 120 120 118 116 114 110 106 102 99 95 91 88 85 81 78 75 73 71 69 67 66 65 64 63 62 61 61 60 59 58 57 57 56 56 56 56 55 54 54 53 53 52 53 54 54 54 54 54 55 55 56 57 58 59 61
79 81 82 83 82 82 81 81 82 83 85 87 90 92 95 98 100 103 105 108 111 113 114 116 117 118 119 120 120 120 118 115 112 109 106 102 98 94 91 87 84 81 78 75 72 69 67 65 63 62 60 59 58 57 56 55 54 53 51 51 50 49 49 50 50 50 50 49 49 49 49 49 49 50 51 51 51 52 52 53 54 55 55 56 58
82 83 83 82 81 81 80 81 83 85 88 91 93 96 98 101 104 106 109 111 113 114 116 117 118 119 120 120 119 117 113 109 105 101 98 94 90 86 82 79 76 74 71 68 66 63 61 59 57 55 54 52 51 49 48 47 47 46 45 45 45 45 45 46 46 47 47 47 48 48 48 48 48 49 50 51 51 51 52 52 53 54 55 55 56
83 83 81 80 80 80 81 83 86 89 91 94 96 99 101 104 107 109 110 112 113 115 117 118 119 119 118 117 115 111 107 103 97 93 89 85 81 77 74 71 69 67 64 62 59 57 55 52 50 49 47 45 44 43 42 42 41 42 42 42 42 43 44 45 45 46 47 48 48 49 49 49 49 49 50 51 51 51 51 51 51 52 53 54 55
82 80 79 79 80 81 84 86 89 92 94 97 99 102 104 106 108 110 111 113 114 116 117 117 117 116 114 112 108 104 100 95 89 84 80 76 72 69 66 63 61 59 57 55 52 50 48 46 44 42 41 40 40 39 39 38 38 39 41 41 42 42 43 44 45 45 46 46 46 47 46 46 46 46 46 47 47 47 47 46 46 46 47 49 51
79 78 78 79 82 84 87 90 92 94 97 100 102 104 106 107 109 110 112 114 115 115 116 115 113 111 108 104 100 95 90 86 81 76 71 68 65 61 58 56 53 51 50 48 46 44 42 41 40 39 38 38 38 39 38 38 37 37 38 38 38 39 39 40 41 41 42 42 43 43 43 44 44 43 44 44 44 44 44 43 42 42 42 43 44
76 77 79 82 85 87 90 92 95 97 100 102 104 105 106 108 110 111 112 113 114 113 112 110 107 103 99 94 90 85 80 76 73 68 64 61 58 55 52 49 47 45 44 43 42 41 40 39 39 38 38 38 38 38 37 36 35 34 34 34 34 35 36 37 38 39 40 41 41 42 42 42 43 43 42 43 43 43 43 42 42 41 40 40 41
77 79 82 85 87 90 92 95 97 99 101 102 104 105 107 108 110 111 111 111 110 109 107 103 99 95 90 85 80 76 72 68 65 62 59 56 53 50 48 46 44 43 42 41 40 40 40 39 38 38 37 36 35 35 34 34 34 34 34 34 34 35 35 35 36 36 36 36 36 37 37 37 37 37 37 38 39 39 39 39 39 39 39 38 39
80 82 85 87 90 92 94 97 99 100 101 102 104 105 107 108 108 108 108 107 106 103 100 96 91 86 81 76 72 68 65 62 59 57 55 53 50 48 46 44 43 42 40 39 39 38 38 37 36 35 33 32 32 33 34 35 35 35 35 35 35 34 33 32 31 31 30 30 30 30 30 30 29 29 29 30 31 31 32 32 32 32 33 33 34
82 85 87 89 92 94 96 97 98 99 101 102 104 105 105 105 105 105 104 103 100 97 92 87 82 77 73 69 66 62 60 58 56 54 52 51 49 47 46 44 42 40 38 37 36 35 34 33 32 31 31 32 33 34 34 34 34 34 34 33 32 31 30 28 27 25 24 23 23 23 23 23 22 22 23 24 24 25 26 26 26 26 27 27 27
84 86 89 91 93 95 96 97 98 99 101 102 103 103 103 103 103 102 100 97 93 89 84 79 75 71 67 64 61 58 56 54 53 52 51 49 48 47 45 43 41 39 37 35 33 32 31 29 29 29 31 32 33 33 32 32 32 32 31 30 29 27 26 25 24 23 22 21 20 20 20 20 19 18 19 20 20 21 22 22 22 22 23 23 23
86 88 90 92 94 95 96 97 98 99 100 100 100 100 100 100 99 97 94 90 86 82 78 73 69 66 62 59 57 55 53 52 50 50 49 48 47 45 44 42 41 39 37 34 32 30 29 29 29 30 31 31 31 30 30 29 28 27 26 26 25 24 23 22 22 21 21 20 20 20 20 19 18 17 17 18 19 19 20 20 21 21 20 20 20
87 89 91 92 93 94 95 96 98 98 98 98 98 98 98 96 95 92 89 85 81 76 72 68 64 61 58 55 54 52 50 49 48 47 46 45 44 42 41 40 39 37 35 33 30 29 29 30 30 30 29 29 28 27 26 25 24 23 23 23 23 22 21 21 20 19 19 19 19 19 19 19 18 17 17 18 19 19 20 20 19 19 18 17 16
88 89 91 91 92 94 95 96 96 96 96 96 95 95 93 92 90 87 84 79 75 71 67 63 59 56 54 52 50 48 47 46 44 43 42 41 39 38 37 37 36 34 32 30 29 28 29 29 28 28 27 26 25 24 24 23 23 23 22 22 22 22 21 21 20 19 19 19 19 20 20 20 20 20 20 20 20 19 18 16 15 14 13 13 12
88 89 90 91 92 93 94 94 93 93 93 93 92 90 89 87 85 82 78 74 70 66 62 59 56 53 51 49 47 45 44 43 42 41 39 37 36 36 35 35 34 33 32 31 29 29 28 27 26 26 25 25 25 24 24 24 23 23 23 23 23 22 22 22 22 21 21 21 21 21 21 21 22 22 21 19 17 15 14 13 12 11 10 10 9
87 88 89 90 91 92 91 91 91 91 90 89 87 86 84 82 80 77 74 70 66 62 59 56 54 51 49 47 46 45 43 42 41 39 37 35 34 34 34 33 33 33 32 31 29 28 27 26 26 27 27 26 26 25 25 24 24 24 24 23 23 23 23 24 24 24 24 23 23 23 23 23 22 20 18 16 16 15 15 14 13 12 11 11 10
86 87 88 89 90 89 89 89 88 87 85 84 82 81 79 78 76 73 71 67 64 60 57 54 52 49 48 46 45 43 42 41 39 37 35 33 33 33 33 33 33 32 32 31 30 29 28 29 29 29 28 28 27 26 26 25 24 24 24 24 24 24 25 25 25 25 25 25 25 25 23 22 20 19 18 18 18 18 17 16 15 15 14 13 12
85 86 87 87 87 87 86 86 84 82 80 79 78 77 76 75 73 70 67 65 62 59 56 53 50 48 47 45 43 42 41 40 38 35 34 33 34 34 34 34 34 33 33 32 31 30 30 30 30 29 29 28 27 27 26 26 25 25 25 25 26 26 25 25 25 26 26 25 24 23 22 21 21 21 21 20 20 19 18 18 18 17 17 16 14
84 85 85 85 84 84 83 81 79 77 76 75 74 74 73 72 70 67 65 62 60 57 54 52 49 48 46 44 42 41 40 38 36 35 35 35 35 35 35 35 35 35 34 33 31 30 30 30 30 30 29 29 28 28 27 27 27 27 27 27 27 27 27 27 27 27 26 25 23 23 23 23 23 23 22 22 21 21 20 20 20 19 18 18 17
83 83 83 82 81 81 79 76 74 73 73 72 72 71 70 69 67 64 62 60 58 55 53 50 48 46 44 43 41 40 39 37 36 36 36 36 36 36 35 35 35 35 34 34 33 33 32 32 31 31 31 30 30 30 29 29 29 29 29 28 28 28 28 27 27 26 26 25 25 25 25 24 24 24 23 23 23 23 23 22 22 21 21 21 20
81 81 80 79 78 76 74 72 70 70 70 70 69 68 67 65 63 61 59 57 56 53 51 48 46 44 43 42 40 39 37 36 36 36 36 36 36 35 35 35 36 36 36 36 36 36 35 34 33 32 32 32 32 31 31 31 30 30 29 29 28 29 28 28 28 28 28 27 27 26 26 26 26 26 25 25 25 25 25 24 24 23 23 23 23
79 78 77 76 74 71 69 68 68 68 68 67 67 65 64 62 61 59 57 56 54 52 49 47 44 43 42 41 39 38 37 37 37 37 37 37 36 36 36 36 36 37 37 37 36 36 35 35 34 34 34 33 33 32 32 31 31 31 31 31 31 31 31 31 31 30 30 29 29 28 28 28 27 27 27 27 27 26 26 25 25 25 25 25 25
76 75 74 72 69 67 66 65 65 65 65 64 63 62 61 59 58 57 56 54 52 50 48 46 44 43 41 39 38 38 38 38 38 38 38 38 38 38 38 38 38 38 37 36 35 35 35 35 35 35 34 33 33 33 32 32 33 33 33 34 34 34 34 34 33 32 31 31 30 30 29 29 28 28 28 27 27 28 27 27 26 26 26 27 26
74 72 70 67 65 64 64 63 63 63 62 62 60 59 58 58 57 56 55 53 51 49 47 46 44 43 41 39 39 39 39 39 39 39 39 39 39 39 39 38 38 37 36 34 34 34 35 35 35 35 35 35 35 35 35 35 35 35 36 36 36 36 35 35 34 33 33 32 31 31 31 30 30 29 29 29 28 28 28 27 27 27 27 28 27
71 69 66 64 62 61 61 61 61 61 60 59 58 57 57 57 56 55 53 52 50 48 46 45 44 43 42 41 40 39 39 39 39 39 39 40 40 40 39 38 38 37 36 36 36 37 37 38 38 38 39 39 39 39 38 38 38 38 38 38 38 37 37 36 36 35 35 34 34 33 33 32 31 30 30 29 29 28 28 27 27 28 29 29 29
67 65 62 61 60 59 58 58 58 58 58 57 56 55 55 56 55 54 53 51 49 47 46 45 45 44 43 42 41 40 40 40 40 40 40 40 40 39 39 38 38 38 38 39 40 41 41 42 43 44 44 44 43 43 42 41 41 42 42 42 41 40 39 39 38 37 37 36 36 35 35 34 33 31 30 29 29 28 28 28 28 29 30 31 31
64 62 60 59 58 57 56 56 56 56 55 54 54 54 54 55 55 54 52 50 49 48 47 47 45 44 43 42 42 41 41 41 41 41 41 41 40 40 40 40 40 40 41 42 44 45 46 48 49 49 49 49 49 48 47 47 46 46 45 45 44 43 42 41 40 39 39 38 37 37 36 35 34 33 31 30 29 28 28 28 29 30 31 32 32
61 59 58 56 56 55 55 54 54 53 53 52 52 52 53 54 54 53 52 50 49 48 48 47 45 45 44 43 43 42 42 43 42 42 41 41 41 41 41 42 43 44 45 47 49 50 51 52 53 53 54 54 54 53 53 52 51 50 49 48 47 46 45 44 43 42 41 40 39 39 38 37 36 34 32 30 29 28 28 28 29 30 31 32 33
58 57 55 55 54 54 53 53 53 52 50 50 50 51 52 53 53 52 51 50 49 48 47 46 45 44 44 44 44 43 43 43 43 42 42 42 42 43 44 45 47 49 51 52 53 53 54 54 55 55 56 56 57 57 56 56 55 54 53 52 51 50 48 47 46 45 44 43 42 40 39 38 37 35 34 31 29 28 27 27 28 28 29 30 31
55 54 54 53 53 53 52 52 51 50 49 48 49 50 51 52 52 51 50 49 47 46 46 45 45 44 44 44 44 44 43 43 43 43 44 45 46 47 49 50 52 53 54 54 54 54 54 54 54 55 55 56 57 57 57 57 57 56 56 55 54 53 53 52 51 49 48 47 46 44 42 41 39 37 35 33 31 29 27 26 26 27 27 28 29
53 52 52 52 52 51 51 51 50 48 47 47 47 49 50 51 51 50 49 48 47 46 45 45 44 44 44 44 44 44 44 45 45 46 47 49 50 51 52 53 54 54 53 53 53 53 53 54 54 55 55 55 56 56 56 56 55 55 55 54 54 54 53 53 52 51 51 50 49 48 47 45 43 41 39 37 35 32 30 28 26 26 25 26 27
52 51 51 51 51 50 49 49 48 46 45 45 46 47 49 51 51 50 49 48 47 46 45 45 44 44 44 45 45 46 47 48 49 50 51 51 52 52 53 53 53 53 52 52 52 52 53 53 53 53 53 53 53 53 53 53 52 52 52 51 51 51 50 50 50 49 49 49 48 48 47 47 46 44 43 41 39 37 34 32 30 28 26 25 25
50 50 50 49 49 48 48 47 45 44 44 43 44 45 48 50 51 50 49 48 47 46 45 45 45 46 47 47 48 49 50 50 50 50 51 51 51 52 52 52 51 51 51 50 51 51 51 51 52 52 52 51 51 51 50 50 50 50 50 49 49 49 48 48 48 48 47 47 47 46 45 45 44 43 42 42 40 39 38 36 35 33 31 29 28
49 49 48 48 47 46 45 44 43 42 42 42 42 43 45 47 49 50 50 49 48 48 47 47 47 48 48 49 49 49 49 49 49 50 50 50 50 50 50 49 49 49 49 50 50 51 51 51 51 51 51 51 51 51 50 50 49 49 49 49 48 48 48 47 47 46 46 45 45 44 44 43 42 42 41 40 39 38 38 37 36 35 34 33 31
48 47 46 45 44 44 43 42 41 41 40 40 41 42 43 45 46 48 49 49 49 49 48 48 48 47 47 47 47 47 47 47 48 48 49 48 48 48 48 48 48 48 49 50 50 51 51 51 51 51 51 50 50 50 49 49 49 48 48 48 47 47 47 46 45 45 44 43 42 42 41 40 40 39 39 38 37 37 36 35 34 34 33 32 30
46 45 44 43 42 41 40 39 39 38 39 39 39 40 41 43 44 45 46 47 47 47 46 46 45 45 44 44 45 45 46 46 46 46 46 46 46 46 46 46 47 47 48 49 49 49 49 49 49 49 49 48 48 48 47 47 47 47 47 46 46 45 45 44 43 42 42 41 40 39 38 38 37 36 36 35 35 35 34 33 33 32 31 30 30
44 43 42 41 40 39 38 37 36 36 37 37 38 39 40 41 42 43 43 44 44 44 44 43 43 43 43 43 43 43 44 43 43 43 43 43 43 43 43 44 44 45 46 46 47 47 47 47 46 46 46 46 46 46 46 46 46 46 46 46 45 45 44 44 43 42 40 39 38 37 36 35 34 33 33 32 32 31 31 31 30 30 30 29 29
43 42 40 39 38 36 35 34 34 35 35 35 36 37 38 39 39 40 41 41 42 42 42 42 42 41 41 41 41 41 40 40 40 40 40 40 40 40 40 41 41 42 43 43 43 43 43 43 43 44 44 44 44 44 44 45 45 45 45 45 45 45 45 45 44 43 42 40 39 37 35 34 33 32 31 30 29 29 28 28 28 28 28 28 28
41 40 38 37 36 34 33 33 33 33 33 34 34 35 36 36 36 37 37 38 38 39 39 39 39 39 39 38 38 38 37 37 37 37 37 37 37 37 38 38 39 40 40 40 40 40 41 41 41 42 42 42 42 43 43 43 44 44 44 44 45 45 45 45 45 45 44 42 41 39 37 35 34 32 31 30 29 28 27 26 25 25 25 25 25
39 38 36 35 34 32 31 31 31 31 31 32 33 33 34 34 34 34 34 35 35 35 36 36 36 36 36 36 36 35 35 35 35 35 35 35 35 35 36 37 37 38 38 38 38 39 39 40 40 40 41 41 41 41 41 42 42 42 43 43 43 43 44 44 44 44 43 43 42 41 39 37 36 34 32 31 29 28 26 25 24 23 22 22 21
37 36 35 33 32 31 30 30 29 29 30 30 31 32 32 32 33 33 33 32 33 33 33 33 33 33 33 34 34 34 34 34 33 33 33 33 33 34 34 34 35 35 36 36 36 37 38 38 38 38 38 38 38 38 39 39 39 40 40 41 41 41 41 41 41 41 42 41 41 41 40 38 36 35 33 31 30 29 27 26 24 23 22 21 20
36 34 33 31 30 29 29 28 28 28 29 30 31 31 31 32 32 32 32 32 32 32 32 31 31 31 31 31 32 32 32 32 32 32 32 32 32 32 32 33 33 34 34 35 35 35 36 36 37 37 37 36 36 36 37 37 37 38 38 38 39 39 39 39 39 39 40 39 39 40 39 38 36 35 33 31 30 29 28 27 26 24 22 21 19
34 33 31 29 28 28 28 27 27 28 29 30 31 31 31 32 32 32 32 32 32 32 32 32 32 32 31 31 31 31 31 31 31 31 31 31 31 31 31 31 32 33 33 34 34 34 35 35 36 37 36 36 36 36 36 36 36 36 37 37 37 37 37 37 37 37 38 38 38 38 38 38 37 35 33 31 30 29 28 27 26 25 24 22 21
32 31 29 27 27 26 26 26 27 27 28 29 30 31 31 32 32 32 32 32 32 32 32 32 32 32 32 32 32 32 32 32 31 31 31 31 31 31 31 31 32 32 33 33 34 34 34 35 35 36 36 36 36 36 36 36 35 35 36 36 36 36 36 36 36 36 36 36 36 36 36 37 37 36 34 32 31 30 29 28 26 25 24 24 23
30 29 27 26 25 25 25 25 25 26 27 28 29 30 30 30 30 31 31 31 31 31 31 31 31 31 31 31 31 31 31 31 31 31 31 32 31 32 32 32 32 33 33 33 33 33 34 34 34 35 35 35 35 36 36 35 35 34 34 34 34 33 33 34 34 35 35 35 35 35 35 34 35 35 35 33 31 30 29 29 28 26 25 24 23
29 27 25 24 24 23 23 23 24 25 26 27 27 28 28 29 29 29 30 30 30 30 30 30 30 30 30 30 30 30 30 31 31 31 31 31 31 31 32 32 32 32 32 33 33 33 33 34 34 34 34 34 34 34 34 34 34 34 33 33 32 32 32 32 33 33 34 34 34 34 33 33 32 32 33 33 32 30 29 29 28 27 26 25 23
27 25 24 23 22 22 22 22 23 24 25 25 26 27 27 28 28 28 29 29 29 29 29 30 30 30 30 30 30 31 31 31 31 32 32 32 32 32 32 33 33 33 33 33 33 33 33 34 34 34 34 34 34 34 34 34 34 34 33 33 32 32 32 32 32 32 32 33 33 32 32 31 30 30 30 31 31 31 29 28 27 27 26 26 25
25 23 22 21 20 20 20 21 21 22 23 24 25 25 26 26 27 27 27 28 28 28 29 29 29 30 30 30 31 31 32 32 32 33 33 33 33 34 34 34 34 34 34 34 34 34 34 34 34 34 34 34 34 34 34 34 34 34 34 33 33 32 32 32 32 32 32 32 32 32 31 30 29 29 28 28 29 30 29 28 27 26 26 26 25
Wind_Direction
317 316 316 315 314 314 313 313 312 312 311 311 310 310 309 308 307 306 305 304 304 303 303 303 303 303 303 303 303 302 302 302 301 301 301 301 301 301 301 301 301 301 300 300 299 298 297 296 295 293 292 291 290 289 288 288 287 286 285 284 284 283 283 282 281 280 279 278 278 277 277 276 275 275 274 273 273 272 271 271 269 268 267 266 264
316 316 315 314 314 313 313 312 312 312 312 311 311 311 310 309 307 306 306 305 305 305 305 305 305 305 304 304 304 303 303 302 302 302 302 302 302 302 302 303 302 302 301 300 300 299 298 297 296 295 294 293 292 291 290 289 288 287 286 285 285 284 284 283 282 281 280 280 279 279 278 277 276 275 275 274 273 272 271 270 269 268 266 265 263
316 315 314 314 313 313 312 312 312 312 312 312 312 311 310 309 308 308 307 307 307 307 307 307 306 306 305 304 304 304 303 303 303 303 303 303 304 304 304 304 303 303 302 301 300 300 299 298 297 296 295 294 293 292 291 290 289 288 287 287 287 286 285 285 284 283 282 281 280 280 279 278 277 276 275 274 273 271 270 269 267 266 264 263 262
315 315 314 314 313 313 313 313 314 314 314 313 312 312 311 311 310 310 310 310 309 309 308 307 307 306 305 305 305 305 304 305 305 305 305 306 306 306 306 305 305 304 303 303 302 302 301 300 299 298 297 296 295 294 293 292 291 290 289 289 288 288 287 286 286 285 283 282 281 280 279 278 277 276 275 274 272 271 269 267 265 264 262 261 259
315 315 314 314 314 314 315 316 316 315 315 314 314 313 313 313 312 312 311 311 310 309 308 308 307 307 306 306 306 306 306 307 307 308 308 308 308 308 307 307 306 306 306 305 304 303 302 301 300 299 298 297 296 295 295 294 293 293 292 291 291 290 289 289 288 287 286 285 284 283 282 280 279 278 277 275 273 272 270 268 266 264 262 260 259
315 315 315 315 316 317 317 318 317 316 316 316 315 315 314 314 313 312 312 311 310 310 309 308 308 308 308 308 308 308 308 309 310 310 310 310 310 310 309 309 308 308 307 306 306 305 304 303 302 301 300 299 299 298 297 297 297 296 296 295 294 293 292 292 291 290 289 288 287 286 285 283 282 281 280 278 276 274 272 270 268 266 264 262 259
316 316 317 317 318 319 319 319 318 318 317 317 316 316 315 314 314 313 312 311 311 310 310 310 310 309 309 309 310 310 311 311 312 312 312 312 312 312 311 311 310 309 309 308 307 307 306 306 305 304 303 302 302 301 301 301 301 300 299 298 297 296 295 294 293 292 291 290 289 288 287 286 284 283 281 281 279 277 275 273 271 269 267 265 262
318 318 319 320 321 321 320 320 320 319 318 318 317 316 316 315 314 313 313 313 312 312 312 311 311 311 311 311 312 313 313 314 314 314 314 314 314 314 313 313 312 312 311 311 311 310 310 309 309 308 307 307 306 305 304 303 302 301 300 299 298 297 296 295 295 294 293 292 291 290 289 287 286 284 283 282 281 279 278 276 273 271 269 268 265
320 321 322 322 322 322 321 321 320 320 319 318 318 317 316 316 315 315 314 314 314 313 313 312 312 313 314 314 315 315 316 316 316 316 316 316 316 316 316 316 316 315 315 315 315 315 314 314 313 312 312 311 309 308 307 306 304 302 301 301 300 300 299 298 297 296 295 294 293 291 290 288 287 285 284 282 281 280 280 279 277 274 272 269 267
323 324 324 324 323 323 322 322 321 320 320 319 318 318 317 317 317 316 316 315 315 314 314 314 315 316 316 317 318 318 319 319 319 320 320 320 320 320 320 320 320 320 319 319 319 318 318 317 316 315 314 313 311 311 311 310 309 309 307 306 305 304 302 301 299 298 296 294 293 291 289 288 287 285 284 283 282 281 280 279 278 277 275 273 270
325 325 325 324 324 323 323 322 321 321 320 319 319 319 319 318 318 317 317 316 316 316 316 317 318 319 319 320 321 321 322 322 323 323 324 324 324 324 324 324 324 323 322 321 320 319 318 318 318 317 316 316 316 316 316 315 315 314 313 311 309 307 305 304 302 301 299 297 296 294 292 291 290 289 287 285 284 283 282 281 280 279 277 275 273
327 326 326 325 324 324 323 322 321 321 321 321 320 320 320 319 319 318 318 318 318 319 319 320 321 322 322 323 324 325 325 326 326 326 326 326 327 327 327 326 326 325 324 322 321 320 319 320 320 320 320 321 320 320 319 318 317 316 315 314 314 313 312 311 310 308 307 306 304 302 300 299 298 296 295 293 291 289 288 286 285 283 281 278 276
327 327 326 325 325 324 323 322 322 322 322 322 322 321 321 320 320 320 320 320 321 322 322 323 324 325 326 326 327 328 329 329 329 329 329 329 329 329 329 328 328 327 326 325 324 323 324 324 324 325 325 324 322 321 321 320 320 320 320 320 321 321 322 323 323 321 320 318 315 313 311 310 309 307 304 301 299 297 295 294 292 289 287 284 280
328 327 326 325 324 324 323 323 324 324 324 323 323 322 322 322 322 322 323 323 324 325 326 327 327 328 329 330 331 332 332 332 332 332 331 331 331 331 330 329 328 327 327 328 329 330 330 330 330 328 327 326 325 325 325 325 325 326 327 328 330 333 335 336 336 335 333 331 328 325 323 322 322 319 314 311 308 306 304 302 300 296 293 290 286
328 327 326 325 324 324 325 325 325 325 325 325 324 324 324 324 324 325 326 327 328 328 329 330 331 332 333 334 334 335 335 335 334 334 334 333 333 332 331 331 330 329 329 330 333 335 336 334 333 332 332 332 331 332 331 332 333 335 337 340 343 346 347 346 345 344 341 340 337 335 335 336 337 334 326 321 318 316 312 308 305 303 300 296 292
328 327 326 325 326 326 327 327 327 326 326 326 327 327 326 326 327 328 329 330 331 331 332 333 334 335 336 337 337 337 337 337 337 337 337 336 336 336 336 336 336 335 334 333 335 337 338 338 339 339 340 340 340 340 342 344 347 350 352 354 355 356 357 356 354 352 348 346 344 342 341 342 341 338 331 325 321 318 313 310 307 306 305 303 300
327 327 326 327 328 328 328 328 328 328 328 329 329 329 329 329 330 331 332 332 333 334 335 336 337 339 339 340 340 341 341 341 341 341 342 343 343 344 345 345 346 347 347 347 346 347 347 348 349 349 350 352 354 357 0 3 4 5 6 5 3 2 2 1 358 356 353 350 348 346 345 343 341 338 333 328 324 321 319 319 320 319 318 318 316
328 327 328 329 329 329 329 329 330 330 331 331 331 331 332 333 333 334 334 335 336 338 339 340 341 342 343 344 345 346 346 347 347 348 350 351 353 354 356 358 359 360 1 1 0 0 0 1 2 4 7 10 14 16 17 17 15 13 11 9 6 4 2 1 359 358 356 354 352 351 349 346 342 339 337 337 339 342 348 353 356 355 351 349 346
329 329 330 330 330 330 331 331 332 333 333 333 333 334 335 336 336 337 338 339 341 342 343 344 345 346 347 349 350 351 352 353 354 356 358 360 1 2 4 5 5 6 7 10 12 14 15 16 18 21 24 26 26 26 23 20 17 14 11 9 7 5 3 2 1 360 359 358 356 355 352 349 350 353 357 4 12 17 21 22 21 18 15 13 10
331 331 331 331 332 332 333 334 334 335 335 336 337 337 338 339 339 340 341 343 345 346 347 348 348 350 352 354 355 356 357 359 1 4 6 7 7 8 9 10 13 16 20 24 26 27 27 27 29 30 30 29 28 26 23 20 16 14 12 10 8 7 5 4 4 3 2 0 358 358 359 4 12 21 27 30 31 32 32 32 30 29 28 29 30
332 333 332 332 333 334 335 336 336 337 338 339 340 340 341 342 343 344 345 347 348 349 350 351 352 354 356 358 359 1 3 6 9 12 14 14 14 16 18 22 26 30 33 35 35 33 31 31 31 31 30 28 27 25 22 20 18 16 14 13 12 11 10 9 8 6 5 5 8 13 20 27 33 36 37 37 37 37 37 37 37 38 40 42 43
334 334 334 334 335 336 337 338 338 340 341 342 343 344 345 346 346 348 349 350 351 352 353 354 356 358 0 2 5 7 9 13 17 19 20 21 24 27 29 31 34 36 38 39 38 37 35 33 32 31 30 29 27 26 24 22 20 19 18 17 16 15 14 12 11 11 15 20 27 33 36 39 40 41 41 41 41 42 43 44 45 47 49 50 52
335 335 336 337 338 338 339 340 341 343 344 345 347 348 349 349 350 352 353 354 355 356 356 358 360 2 4 8 10 13 17 20 23 25 27 30 32 33 33 34 36 37 38 39 39 38 36 34 33 32 30 29 28 27 26 25 24 23 22 21 19 18 17 17 19 25 32 37 41 42 43 43 44 44 45 47 48 49 51 52 54 55 56 56 56
336 337 338 339 340 340 341 342 344 346 347 349 350 351 352 354 355 357 358 358 358 359 0 2 4 6 9 13 16 20 24 28 30 33 35 36 36 36 36 36 37 36 36 36 35 35 34 33 33 31 30 30 29 29 28 28 27 26 25 24 23 23 26 30 36 41 44 45 45 46 46 46 47 47 49 52 54 56 58 59 60 60 59 59 59
338 339 340 341 341 342 344 345 347 349 351 352 353 355 357 358 360 1 2 2 2 3 5 7 9 11 15 19 23 27 32 35 37 38 39 39 39 40 39 38 37 36 35 34 33 32 32 32 33 32 32 32 31 31 30 29 28 28 28 29 32 35 40 44 46 47 47 47 47 48 48 49 50 51 54 57 60 63 64 63 63 62 61 61 61
340 341 342 343 343 344 346 348 350 352 353 355 357 359 1 3 5 6 7 7 7 8 10 13 15 18 22 27 30 34 37 40 40 40 40 40 41 40 39 38 37 36 35 34 33 34 34 35 35 35 34 34 33 32 31 31 31 32 34 37 41 45 48 49 49 49 49 49 49 50 50 52 53 55 59 63 67 68 67 66 65 65 64 62 61
342 343 344 344 345 347 349 351 352 354 356 358 0 3 6 9 10 11 12 13 13 14 16 19 23 27 31 35 38 40 41 41 41 40 41 41 40 39 39 38 38 38 37 37 39 40 40 40 40 38 37 36 35 35 35 36 38 41 44 47 50 51 52 52 51 51 51 51 52 53 53 55 57 60 64 68 70 69 68 67 66 65 63 59 57
344 345 345 346 348 350 351 353 354 356 358 1 4 8 12 14 16 17 18 19 20 22 24 27 31 36 40 43 44 44 43 43 42 42 41 40 40 39 39 39 40 41 42 43 45 45 44 44 42 41 40 40 40 41 42 44 46 50 53 55 56 56 55 54 53 53 53 53 53 54 55 56 58 61 66 69 70 70 69 67 66 63 60 56 54
345 346 346 348 350 352 353 354 356 359 1 4 7 12 16 19 21 23 24 25 27 30 34 38 41 44 46 47 47 47 46 46 45 43 42 42 41 41 42 43 44 45 45 46 47 47 47 47 47 47 47 48 48 49 50 51 53 55 56 57 57 56 55 55 54 54 54 55 55 55 55 56 58 61 65 68 69 69 68 66 64 61 58 56 55
346 347 348 350 352 353 355 356 359 1 3 6 11 15 20 23 26 28 30 33 36 39 43 46 48 49 50 50 50 49 49 47 46 45 44 44 45 45 46 46 47 47 48 49 50 51 52 53 53 53 53 54 54 55 56 56 56 56 57 57 56 56 56 55 55 55 55 55 55 56 56 57 58 61 64 66 67 67 66 64 62 60 59 58 58
347 348 350 352 353 354 356 358 1 3 6 10 14 18 23 27 30 33 35 38 42 45 47 49 50 51 51 51 50 49 49 48 48 47 47 47 47 47 48 49 50 52 54 55 56 57 57 57 57 57 57 57 57 58 58 58 58 58 57 57 57 57 57 56 56 56 56 56 56 56 56 57 58 60 63 65 66 67 66 63 61 60 60 60 60
349 350 352 353 354 355 357 360 3 6 9 13 18 22 27 31 34 36 39 42 44 47 48 49 50 51 51 50 50 49 49 49 49 49 50 50 51 52 54 56 58 59 60 60 60 60 60 59 59 58 58 58 58 59 59 59 59 59 59 59 59 58 58 58 58 58 57 57 57 57 57 58 59 60 61 63 65 65 64 63 61 60 60 60 60
350 351 352 353 355 356 359 2 5 9 13 17 21 26 30 34 36 38 41 43 45 46 48 49 50 51 51 51 51 51 51 51 51 52 53 55 57 59 61 62 63 63 62 62 61 61 60 59 59 58 58 58 58 58 58 58 58 58 58 58 58 58 58 58 58 58 58 58 58 58 58 58 58 59 60 61 63 63 63 62 61 60 59 58 59
351 352 353 354 356 358 1 4 8 12 16 21 25 30 34 37 38 40 41 43 44 46 48 49 50 51 52 52 52 53 54 55 57 59 61 63 64 64 64 64 63 62 61 60 60 59 59 58 57 57 57 56 56 56 56 55 55 55 55 55 55 55 55 55 55 56 56 56 56 56 57 57 57 58 58 59 60 60 61 61 60 59 57 56 57
352 353 354 355 357 359 3 6 10 14 19 24 29 34 37 40 41 41 42 42 43 45 46 48 49 51 52 54 56 58 60 62 64 65 66 65 65 64 63 62 61 60 59 59 58 58 57 57 56 55 55 54 53 53 52 52 52 52 52 52 52 52 52 52 53 53 53 54 54 55 55 55 56 56 57 57 58 58 59 59 59 59 58 57 56
353 354 355 356 358 1 5 8 12 16 21 26 31 36 40 43 44 45 45 45 46 47 48 50 52 54 57 59 62 64 65 66 66 65 65 64 63 62 61 60 59 59 58 58 57 57 56 55 55 54 53 52 52 51 50 50 50 49 49 49 49 49 49 49 49 49 50 50 51 51 52 53 53 54 55 55 56 57 58 58 58 58 59 58 58
354 355 356 357 0 3 6 10 14 18 22 27 32 37 41 44 46 47 48 49 50 52 53 55 57 59 62 63 65 65 65 65 64 64 63 62 61 60 60 59 59 58 58 57 57 56 56 55 54 53 53 52 51 51 50 49 49 48 48 47 47 47 47 46 46 46 46 47 47 47 48 48 49 50 50 51 52 53 54 55 56 56 57 57 57
355 356 357 359 2 5 8 12 16 19 23 27 32 37 41 44 46 47 48 50 51 53 55 57 60 61 63 63 64 64 64 63 63 62 61 60 59 59 59 59 59 58 58 57 56 55 54 53 52 52 51 51 50 50 49 48 47 47 46 46 45 45 45 45 45 44 44 45 45 45 45 45 45 46 46 47 48 49 49 50 51 52 53 55 56
356 356 358 1 4 7 10 14 17 20 24 28 32 37 41 44 45 46 47 48 50 52 54 56 57 59 60 60 61 61 62 61 60 59 59 59 59 59 59 59 58 57 56 54 53 51 50 49 49 49 49 49 49 48 48 47 47 46 45 45 44 43 43 42 42 42 42 42 42 43 43 44 44 44 44 44 45 46 46 47 48 49 51 52 54
356 357 359 2 5 8 12 16 19 22 25 29 33 37 40 43 45 46 47 47 48 49 50 52 53 54 56 57 58 59 58 58 57 57 57 58 59 59 59 58 57 55 52 50 48 46 46 45 45 45 46 46 46 46 46 45 45 44 44 44 43 42 42 41 41 40 40 40 40 40 40 41 41 42 42 43 43 44 44 44 44 45 47 48 50
356 358 0 3 6 10 14 18 21 24 28 31 35 38 40 43 45 46 47 47 47 47 48 49 50 51 53 54 55 55 54 54 54 54 55 56 57 57 56 55 53 50 48 46 44 43 42 42 42 42 43 43 43 43 42 42 42 41 41 41 41 40 40 39 39 39 38 38 39 39 39 39 39 39 40 40 40 41 41 41 41 41 41 42 43
357 359 2 5 8 12 16 19 23 26 30 34 37 39 40 42 43 45 46 47 47 47 47 47 48 49 50 50 51 51 51 51 51 52 53 53 53 52 50 49 47 45 42 41 39 39 39 39 39 39 39 39 38 38 38 37 37 37 37 37 37 36 36 36 35 35 35 35 35 36 36 37 37 38 38 39 39 39 39 38 38 37 37 37 37
358 1 4 7 11 14 18 21 25 28 32 35 38 40 41 41 42 43 45 46 47 47 47 47 47 47 47 47 47 47 47 48 48 48 48 48 47 46 44 43 41 39 37 35 35 35 36 36 36 36 36 35 35 35 34 34 33 33 33 33 33 33 33 32 32 32 32 31 32 32 32 33 33 34 35 36 37 38 38 38 37 36 35 34 34
0 3 7 10 14 18 21 24 27 31 34 37 40 41 42 42 42 42 42 43 44 46 46 46 46 46 45 45 44 43 43 43 42 42 42 41 41 40 39 37 35 34 32 31 31 32 33 33 33 33 33 33 33 33 32 31 30 30 30 30 30 30 29 29 29 29 29 29 28 28 29 29 30 30 31 32 33 34 35 36 36 37 37 35 33
2 6 10 14 18 21 25 28 31 34 37 40 42 44 44 43 43 42 42 41 41 42 42 42 42 43 42 42 41 40 39 38 37 36 35 35 34 33 32 31 29 28 27 27 27 27 28 28 28 28 29 29 29 29 28 28 27 27 26 27 26 26 26 26 26 26 26 26 26 25 25 25 26 27 28 29 30 30 31 30 31 32 35 36 36
5 9 13 17 21 25 28 32 35 38 41 43 45 45 46 45 45 44 43 42 41 41 40 39 39 38 38 37 37 36 35 34 33 32 31 29 28 27 26 25 23 22 22 22 22 23 23 23 23 24 24 25 24 24 23 23 22 22 22 22 22 21 22 22 23 23 23 23 23 22 21 21 22 23 24 25 26 28 29 29 28 27 27 29 31
7 11 16 20 24 28 32 35 38 41 43 45 46 46 46 45 44 43 43 42 41 40 39 38 38 37 36 35 34 33 32 31 30 28 27 26 25 24 23 22 21 20 20 19 19 19 19 19 19 19 19 19 19 18 18 18 17 17 17 17 17 16 16 16 17 18 19 20 20 20 19 17 16 17 19 21 22 23 24 26 27 26 25 24 23
10 14 18 23 27 31 34 37 40 42 44 45 45 44 42 41 40 39 38 37 36 36 35 35 34 33 33 32 31 30 29 28 27 26 25 24 23 22 21 20 19 19 18 18 17 16 15 15 14 14 13 12 12 11 11 11 11 12 12 12 12 12 12 12 12 13 14 15 15 16 16 15 14 12 13 15 17 19 19 20 22 23 24 24 22
12 16 20 25 29 32 36 38 40 41 41 41 40 38 36 35 33 32 31 30 30 29 28 28 27 27 26 26 25 25 24 23 22 21 21 20 19 18 17 16 15 14 13 12 12 11 10 9 8 7 7 6 5 5 5 5 5 5 6 6 7 7 7 7 8 9 9 10 11 11 12 13 12 10 9 9 11 14 15 15 16 17 19 20 21
14 17 21 26 30 33 36 38 38 38 37 36 34 32 30 28 27 26 25 24 23 23 22 22 21 20 20 19 19 18 17 16 16 15 14 13 12 11 10 9 8 7 7 6 5 4 3 2 2 1 0 0 360 359 359 359 359 359 360 0 0 0 1 2 3 4 5 6 6 7 8 8 9 8 7 6 6 8 9 10 11 12 13 15 16
15 18 22 27 30 33 35 35 35 33 32 30 28 26 25 24 22 22 20 19 19 18 17 17 16 15 15 14 14 13 12 11 10 9 8 7 6 5 4 3 3 2 1 1 0 359 358 358 357 356 356 355 355 355 355 355 356 356 355 355 355 355 356 356 357 358 359 0 1 2 2 3 4 5 5 4 3 3 3 4 6 7 8 10 11
Height
5630 5625 5618 5612 5606 5599 5592 5586 5579 5572 5566 5559 5552 5546 5539 5532 5524 5517 5510 5502 5495 5486 5477 5469 5461 5452 5443 5434 5424 5414 5404 5392 5381 5371 5362 5355 5346 5336 5328 5320 5311 5304 5296 5289 5282 5275 5270 5264 5258 5252 5247 5242 5238 5233 5229 5225 5221 5217 5212 5208 5206 5202 5199 5197 5197 5199 5196 5191 5190 5190 5188 5188 5188 5187 5187 5187 5188 5189 5190 5191 5193 5196 5199 5201 5203
5623 5617 5610 5604 5597 5591 5584 5577 5570 5563 5557 5550 5543 5536 5529 5522 5514 5506 5498 5490 5481 5473 5464 5455 5446 5437 5427 5417 5407 5396 5385 5374 5362 5353 5344 5336 5327 5317 5309 5302 5294 5286 5279 5272 5266 5259 5253 5248 5242 5237 5232 5227 5223 5219 5216 5212 5208 5204 5200 5196 5194 5191 5187 5185 5184 5184 5184 5181 5178 5177 5177 5176 5175 5175 5175 5176 5177 5177 5178 5179 5179 5181 5184 5186 5189
5615 5609 5602 5595 5589 5582 5575 5569 5562 5555 5548 5541 5534 5526 5519 5511 5503 5494 5486 5476 5467 5459 5449 5439 5430 5420 5410 5400 5390 5379 5368 5356 5344 5334 5326 5318 5309 5299 5292 5285 5277 5270 5264 5257 5251 5245 5239 5234 5229 5224 5219 5215 5211 5206 5203 5200 5196 5193 5189 5185 5183 5181 5176 5174 5173 5172 5172 5170 5168 5167 5166 5165 5164 5164 5164 5165 5166 5166 5166 5167 5167 5168 5170 5172 5175
5607 5600 5594 5587 5580 5574 5567 5560 5553 5546 5539 5532 5524 5516 5508 5499 5491 5482 5473 5463 5453 5444 5434 5423 5412 5402 5393 5383 5373 5363 5351 5338 5326 5316 5308 5300 5291 5282 5275 5268 5261 5255 5249 5244 5238 5232 5227 5222 5217 5213 5208 5203 5199 5195 5192 5189 5186 5183 5180 5176 5173 5171 5167 5165 5163 5162 5162 5161 5158 5157 5157 5156 5155 5154 5154 5154 5155 5155 5155 5156 5156 5157 5158 5160 5162
5599 5592 5586 5579 5572 5566 5559 5552 5544 5536 5529 5521 5513 5505 5496 5487 5478 5469 5460 5449 5438 5428 5418 5407 5396 5385 5375 5365 5355 5344 5334 5322 5310 5299 5291 5283 5275 5266 5259 5252 5246 5240 5235 5230 5225 5220 5215 5211 5206 5202 5198 5194 5189 5186 5182 5179 5176 5174 5171 5168 5165 5162 5160 5157 5155 5154 5153 5152 5150 5149 5148 5147 5147 5146 5145 5145 5145 5145 5145 5145 5146 5146 5147 5149 5150
5592 5585 5578 5572 5565 5558 5550 5543 5535 5527 5519 5511 5502 5493 5484 5475 5466 5456 5446 5436 5424 5412 5401 5391 5380 5367 5356 5345 5335 5326 5316 5307 5296 5285 5277 5269 5261 5253 5245 5239 5233 5228 5223 5218 5214 5209 5205 5201 5197 5193 5189 5185 5181 5178 5175 5172 5169 5166 5164 5161 5158 5156 5153 5151 5149 5147 5145 5144 5143 5141 5140 5139 5138 5137 5136 5135 5135 5135 5135 5135 5135 5135 5136 5138 5139
5584 5578 5571 5564 5556 5549 5541 5533 5525 5517 5509 5500 5491 5483 5473 5464 5453 5443 5432 5422 5410 5397 5385 5373 5362 5350 5339 5327 5317 5308 5300 5292 5284 5272 5263 5257 5250 5242 5235 5228 5222 5217 5213 5208 5204 5200 5197 5192 5189 5185 5182 5178 5175 5172 5169 5166 5163 5160 5157 5155 5152 5150 5148 5145 5143 5141 5139 5137 5135 5133 5132 5131 5130 5129 5127 5126 5125 5124 5124 5126 5126 5125 5126 5127 5128
5577 5570 5563 5555 5547 5540 5532 5524 5516 5507 5499 5490 5481 5472 5462 5451 5441 5429 5418 5406 5394 5382 5370 5357 5345 5333 5322 5312 5302 5293 5284 5277 5271 5262 5253 5246 5240 5233 5227 5221 5214 5208 5203 5200 5196 5193 5189 5185 5182 5179 5175 5172 5169 5166 5164 5162 5159 5156 5152 5150 5147 5145 5142 5140 5137 5134 5132 5130 5128 5126 5124 5123 5121 5120 5119 5118 5116 5115 5115 5116 5117 5117 5117 5117 5117
5569 5562 5554 5546 5539 5531 5523 5515 5507 5498 5489 5480 5470 5459 5449 5438 5427 5415 5403 5391 5379 5367 5355 5342 5330 5318 5307 5297 5288 5279 5270 5263 5258 5253 5245 5237 5231 5225 5220 5214 5209 5203 5197 5193 5190 5187 5183 5180 5176 5173 5170 5167 5163 5160 5158 5156 5154 5151 5148 5145 5143 5140 5137 5134 5132 5129 5126 5124 5122 5120 5118 5116 5114 5113 5112 5110 5109 5109 5108 5108 5108 5109 5109 5108 5108
5561 5553 5546 5538 5531 5523 5514 5506 5498 5488 5479 5469 5459 5447 5436 5425 5413 5400 5389 5376 5364 5352 5340 5329 5317 5306 5295 5285 5276 5268 5260 5252 5246 5241 5236 5230 5224 5219 5213 5208 5203 5198 5193 5188 5184 5181 5177 5174 5171 5168 5165 5162 5158 5155 5153 5150 5148 5145 5143 5141 5138 5136 5133 5130 5127 5124 5121 5118 5116 5113 5111 5109 5107 5106 5105 5104 5102 5102 5101 5101 5101 5101 5101 5101 5101
5554 5546 5538 5530 5522 5514 5506 5497 5488 5479 5469 5458 5447 5436 5424 5412 5400 5388 5375 5363 5351 5339 5327 5316 5305 5295 5285 5276 5267 5259 5252 5245 5238 5232 5227 5223 5218 5213 5208 5204 5199 5194 5189 5185 5180 5176 5173 5170 5167 5163 5160 5157 5154 5151 5148 5145 5143 5141 5138 5136 5133 5131 5128 5125 5122 5119 5116 5113 5110 5108 5105 5104 5102 5101 5099 5098 5096 5096 5095 5095 5095 5095 5094 5094 5094
5546 5539 5531 5522 5514 5506 5497 5488 5478 5469 5458 5447 5435 5424 5412 5400 5388 5375 5363 5350 5338 5327 5316 5305 5295 5285 5276 5267 5259 5252 5245 5238 5232 5226 5221 5216 5212 5208 5203 5199 5195 5190 5185 5181 5177 5173 5169 5165 5162 5159 5156 5154 5150 5147 5145 5141 5139 5136 5134 5131 5128 5125 5123 5120 5117 5114 5111 5109 5106 5103 5101 5100 5098 5096 5095 5093 5092 5091 5090 5090 5090 5089 5089 5088 5088
5539 5531 5523 5515 5506 5497 5488 5479 5469 5458 5448 5436 5424 5413 5401 5389 5377 5364 5352 5339 5326 5315 5305 5295 5285 5277 5268 5260 5253 5246 5239 5233 5227 5221 5216 5211 5206 5202 5198 5194 5190 5186 5182 5178 5173 5170 5166 5162 5159 5156 5154 5151 5148 5144 5141 5138 5135 5132 5130 5127 5124 5121 5118 5116 5113 5111 5108 5106 5103 5101 5099 5097 5096 5094 5092 5091 5089 5088 5087 5086 5085 5085 5084 5084 5083
5532 5524 5515 5507 5498 5488 5479 5469 5459 5448 5437 5426 5414 5402 5391 5379 5367 5354 5342 5329 5317 5306 5296 5287 5278 5270 5262 5255 5248 5242 5235 5229 5223 5217 5212 5206 5202 5197 5193 5190 5186 5182 5178 5174 5171 5167 5164 5160 5157 5154 5152 5148 5145 5142 5138 5135 5132 5129 5126 5124 5121 5118 5116 5113 5111 5108 5106 5104 5102 5099 5097 5096 5094 5093 5091 5089 5087 5086 5085 5083 5082 5081 5081 5080 5079
5525 5516 5507 5498 5489 5480 5470 5459 5449 5438 5428 5416 5404 5392 5380 5369 5357 5345 5333 5321 5310 5299 5290 5281 5272 5265 5258 5251 5244 5238 5232 5226 5220 5214 5208 5203 5198 5194 5189 5185 5181 5178 5174 5171 5168 5165 5162 5158 5156 5153 5149 5146 5143 5139 5136 5133 5130 5127 5125 5122 5120 5118 5115 5113 5110 5108 5105 5103 5101 5098 5096 5095 5093 5092 5090 5088 5086 5084 5083 5081 5080 5079 5078 5077 5076
5518 5509 5500 5490 5481 5471 5460 5450 5439 5429 5418 5407 5395 5383 5371 5359 5348 5336 5325 5313 5303 5294 5285 5276 5268 5261 5254 5248 5241 5235 5229 5223 5217 5211 5206 5201 5195 5191 5186 5182 5178 5174 5171 5168 5166 5163 5160 5157 5154 5151 5147 5144 5141 5138 5135 5132 5129 5127 5124 5122 5120 5118 5115 5113 5111 5108 5106 5103 5101 5099 5097 5095 5093 5091 5089 5087 5085 5083 5081 5080 5078 5077 5075 5074 5074
5511 5502 5492 5482 5473 5462 5452 5442 5431 5420 5409 5398 5386 5374 5362 5351 5340 5329 5319 5308 5298 5289 5281 5273 5266 5259 5252 5246 5239 5233 5228 5222 5216 5210 5205 5199 5194 5189 5185 5180 5176 5173 5169 5166 5164 5162 5159 5156 5153 5149 5146 5143 5140 5137 5135 5132 5130 5128 5125 5123 5120 5118 5116 5113 5111 5109 5106 5104 5101 5099 5097 5095 5093 5091 5088 5086 5084 5082 5080 5078 5077 5075 5074 5073 5073
5504 5494 5484 5474 5465 5455 5444 5434 5423 5412 5401 5389 5378 5367 5355 5344 5334 5324 5314 5304 5295 5286 5278 5270 5263 5257 5250 5244 5238 5232 5227 5221 5215 5209 5204 5198 5194 5189 5185 5180 5176 5173 5169 5167 5164 5161 5159 5156 5153 5150 5147 5144 5141 5139 5136 5134 5131 5129 5126 5124 5121 5119 5116 5114 5112 5109 5107 5104 5102 5099 5097 5094 5092 5089 5087 5084 5082 5081 5079 5078 5076 5075 5074 5073 5072
5497 5487 5477 5467 5457 5448 5437 5427 5416 5405 5394 5382 5371 5360 5350 5339 5330 5319 5310 5300 5292 5283 5275 5268 5261 5255 5249 5243 5237 5231 5225 5220 5214 5209 5204 5199 5194 5190 5186 5182 5178 5174 5171 5168 5165 5162 5159 5156 5154 5151 5149 5146 5143 5141 5138 5136 5133 5130 5128 5125 5123 5120 5118 5115 5112 5109 5107 5104 5102 5099 5096 5093 5091 5088 5086 5084 5083 5081 5080 5079 5077 5076 5075 5074 5073
5490 5480 5470 5460 5451 5441 5430 5419 5409 5399 5387 5376 5365 5355 5345 5335 5325 5315 5305 5296 5288 5280 5273 5266 5260 5254 5248 5242 5236 5230 5225 5220 5214 5209 5205 5200 5196 5192 5188 5184 5180 5176 5173 5170 5167 5164 5161 5159 5156 5154 5151 5148 5146 5143 5141 5138 5135 5132 5130 5127 5124 5121 5119 5116 5113 5110 5107 5105 5102 5099 5096 5093 5091 5089 5088 5086 5085 5083 5082 5080 5079 5078 5077 5075 5074
5484 5474 5464 5454 5444 5434 5424 5413 5403 5393 5383 5372 5362 5352 5342 5331 5321 5311 5302 5293 5285 5278 5271 5264 5258 5253 5247 5241 5236 5230 5225 5220 5216 5211 5207 5203 5198 5194 5190 5186 5183 5180 5176 5173 5170 5167 5165 5162 5159 5157 5154 5151 5149 5146 5143 5140 5137 5135 5132 5129 5126 5123 5120 5117 5114 5111 5109 5106 5103 5100 5098 5095 5094 5092 5090 5089 5087 5085 5084 5083 5081 5080 5079 5078 5077
5479 5468 5458 5447 5438 5428 5418 5408 5398 5388 5379 5369 5359 5349 5339 5328 5318 5308 5299 5290 5283 5275 5269 5263 5257 5252 5247 5241 5236 5231 5226 5222 5218 5213 5209 5205 5201 5197 5194 5190 5187 5183 5180 5177 5175 5172 5169 5166 5163 5160 5157 5154 5152 5149 5146 5143 5140 5137 5134 5131 5128 5125 5122 5119 5116 5113 5110 5107 5104 5102 5100 5099 5097 5095 5093 5091 5090 5088 5087 5085 5084 5083 5082 5081 5080
5474 5464 5453 5442 5432 5423 5413 5403 5394 5385 5375 5366 5356 5346 5336 5325 5315 5306 5297 5289 5282 5275 5268 5262 5256 5251 5247 5242 5237 5233 5228 5224 5220 5216 5212 5208 5205 5201 5198 5194 5191 5188 5185 5182 5179 5176 5172 5169 5166 5163 5160 5157 5154 5151 5148 5145 5142 5139 5136 5133 5130 5127 5124 5121 5118 5115 5112 5110 5108 5106 5104 5102 5100 5098 5096 5095 5093 5092 5090 5089 5088 5087 5086 5085 5084
5469 5459 5449 5438 5428 5419 5410 5399 5390 5382 5373 5363 5354 5344 5334 5324 5314 5305 5297 5289 5282 5275 5269 5263 5258 5253 5248 5244 5239 5235 5232 5228 5223 5220 5216 5212 5209 5206 5202 5199 5195 5192 5189 5185 5182 5179 5176 5173 5170 5167 5163 5160 5157 5154 5151 5148 5144 5141 5138 5135 5132 5129 5126 5123 5120 5118 5115 5113 5111 5109 5107 5105 5103 5102 5100 5098 5097 5096 5094 5093 5092 5091 5090 5089 5088
5464 5455 5445 5435 5424 5416 5408 5398 5388 5379 5371 5362 5352 5342 5333 5324 5315 5306 5298 5290 5283 5276 5270 5265 5260 5255 5250 5246 5242 5238 5235 5231 5227 5224 5220 5217 5214 5210 5207 5204 5200 5196 5193 5189 5186 5183 5180 5177 5173 5170 5167 5163 5160 5157 5153 5150 5147 5144 5141 5138 5134 5131 5129 5126 5124 5121 5119 5117 5115 5113 5111 5109 5107 5106 5104 5103 5101 5100 5099 5098 5097 5096 5095 5094 5093
5460 5451 5441 5432 5422 5413 5405 5397 5388 5379 5370 5361 5352 5343 5334 5325 5316 5307 5299 5292 5284 5278 5272 5267 5262 5257 5253 5249 5246 5242 5238 5235 5231 5228 5225 5222 5218 5215 5211 5208 5204 5201 5197 5194 5191 5188 5184 5181 5177 5174 5170 5167 5164 5160 5157 5154 5150 5147 5144 5140 5137 5135 5132 5130 5128 5126 5124 5122 5120 5118 5116 5114 5112 5110 5109 5107 5106 5105 5104 5103 5102 5101 5100 5099 5097
5456 5447 5438 5430 5421 5410 5401 5394 5388 5380 5371 5362 5353 5344 5335 5326 5317 5309 5301 5294 5286 5280 5274 5269 5265 5261 5257 5253 5250 5246 5243 5239 5236 5233 5230 5227 5223 5220 5216 5213 5209 5206 5203 5200 5197 5193 5189 5185 5182 5178 5174 5171 5167 5164 5161 5157 5154 5151 5148 5145 5142 5140 5138 5136 5133 5131 5129 5127 5125 5123 5121 5119 5117 5115 5114 5112 5111 5110 5109 5108 5107 5106 5105 5104 5102
5453 5444 5436 5428 5420 5410 5401 5393 5386 5379 5372 5363 5354 5345 5336 5328 5319 5311 5304 5297 5290 5284 5278 5273 5269 5265 5262 5258 5255 5251 5248 5245 5242 5239 5235 5232 5228 5224 5221 5218 5214 5211 5209 5205 5201 5197 5193 5189 5186 5182 5178 5175 5171 5168 5165 5162 5159 5156 5153 5151 5148 5146 5144 5142 5139 5137 5134 5132 5130 5128 5126 5124 5122 5120 5119 5117 5116 5115 5114 5113 5112 5111 5110 5109 5107
5451 5443 5435 5427 5418 5411 5403 5394 5386 5379 5372 5365 5356 5348 5339 5331 5323 5315 5308 5302 5296 5290 5284 5279 5274 5271 5267 5264 5260 5257 5254 5251 5248 5244 5241 5237 5233 5230 5226 5223 5220 5217 5213 5209 5205 5201 5197 5193 5190 5187 5183 5180 5177 5174 5171 5168 5165 5162 5159 5157 5154 5152 5149 5147 5145 5142 5140 5138 5136 5134 5131 5129 5128 5126 5124 5123 5122 5121 5120 5119 5118 5117 5116 5114 5112
5448 5441 5433 5426 5418 5411 5404 5396 5388 5380 5373 5366 5359 5351 5343 5335 5327 5320 5313 5307 5301 5295 5290 5285 5281 5277 5274 5270 5267 5264 5260 5256 5253 5249 5245 5242 5238 5235 5232 5229 5225 5221 5218 5214 5210 5206 5203 5199 5196 5193 5190 5186 5183 5180 5177 5174 5171 5169 5166 5163 5161 5158 5156 5153 5151 5149 5146 5144 5142 5139 5137 5135 5133 5132 5130 5129 5128 5127 5126 5125 5124 5122 5121 5119 5118
5446 5439 5432 5424 5417 5411 5404 5397 5390 5382 5375 5367 5360 5353 5346 5338 5331 5325 5318 5312 5306 5301 5296 5292 5287 5283 5280 5276 5272 5269 5265 5261 5257 5254 5251 5247 5244 5240 5237 5234 5230 5227 5223 5219 5216 5212 5209 5206 5203 5200 5197 5194 5190 5187 5184 5181 5178 5175 5173 5170 5167 5165 5162 5160 5157 5155 5152 5150 5148 5145 5143 5141 5139 5138 5136 5135 5134 5133 5132 5130 5129 5128 5126 5125 5123
5444 5437 5430 5424 5417 5411 5404 5398 5391 5384 5377 5370 5362 5355 5348 5342 5335 5329 5323 5317 5312 5307 5302 5297 5293 5289 5285 5281 5277 5273 5269 5266 5263 5259 5256 5253 5250 5246 5243 5240 5236 5233 5229 5226 5223 5220 5217 5214 5211 5208 5205 5202 5198 5195 5192 5189 5186 5183 5180 5178 5175 5172 5170 5167 5164 5162 5159 5157 5154 5152 5150 5148 5146 5144 5142 5141 5140 5138 5137 5136 5134 5133 5132 5130 5129
5443 5436 5430 5423 5417 5411 5404 5398 5391 5385 5379 5372 5365 5358 5352 5345 5340 5334 5328 5323 5317 5312 5307 5303 5298 5294 5290 5286 5283 5279 5275 5272 5268 5265 5262 5259 5256 5253 5250 5246 5243 5239 5236 5233 5230 5228 5225 5222 5219 5216 5213 5210 5207 5203 5200 5197 5194 5191 5189 5186 5183 5180 5177 5174 5172 5169 5166 5164 5161 5159 5156 5154 5152 5150 5148 5147 5145 5144 5142 5141 5140 5138 5137 5135 5134
5442 5435 5429 5423 5417 5411 5404 5398 5392 5386 5380 5374 5367 5361 5356 5350 5344 5338 5333 5327 5322 5318 5313 5309 5304 5300 5296 5292 5289 5285 5281 5278 5275 5272 5269 5266 5263 5260 5257 5253 5250 5247 5244 5241 5238 5236 5233 5230 5227 5224 5220 5217 5214 5211 5208 5205 5202 5199 5196 5193 5191 5188 5185 5182 5179 5177 5174 5171 5168 5166 5163 5161 5159 5157 5155 5153 5151 5149 5148 5146 5145 5143 5142 5141 5139
5440 5434 5428 5423 5417 5411 5405 5399 5393 5388 5382 5376 5370 5365 5359 5354 5348 5342 5337 5332 5327 5323 5318 5314 5310 5306 5302 5298 5295 5291 5288 5285 5282 5280 5277 5274 5271 5268 5264 5260 5257 5254 5251 5249 5246 5243 5240 5237 5234 5231 5228 5225 5222 5219 5216 5213 5210 5207 5204 5201 5198 5195 5192 5189 5187 5184 5181 5178 5176 5173 5170 5168 5166 5163 5161 5159 5157 5155 5154 5152 5150 5149 5147 5146 5144
5440 5434 5428 5423 5417 5411 5406 5400 5395 5390 5384 5379 5374 5369 5364 5358 5353 5347 5342 5337 5333 5328 5324 5320 5317 5312 5308 5305 5301 5298 5295 5292 5290 5287 5284 5281 5277 5274 5270 5267 5264 5262 5259 5256 5253 5250 5247 5244 5241 5238 5235 5232 5229 5226 5223 5220 5217 5214 5211 5208 5205 5202 5199 5196 5193 5191 5188 5185 5182 5180 5177 5175 5172 5170 5168 5166 5164 5162 5160 5158 5156 5154 5152 5150 5149
5439 5433 5428 5423 5418 5412 5407 5402 5397 5392 5387 5382 5378 5373 5368 5364 5359 5354 5349 5344 5339 5335 5331 5327 5323 5319 5315 5311 5308 5305 5302 5299 5297 5293 5290 5287 5284 5280 5277 5274 5272 5269 5266 5263 5260 5257 5254 5251 5248 5245 5242 5238 5235 5232 5229 5226 5223 5220 5217 5214 5211 5208 5205 5202 5199 5196 5194 5191 5188 5186 5183 5181 5178 5176 5174 5172 5170 5167 5165 5163 5161 5159 5157 5155 5154
5439 5434 5428 5423 5418 5413 5408 5404 5399 5394 5390 5385 5381 5377 5372 5368 5363 5359 5354 5350 5346 5341 5337 5333 5329 5325 5322 5319 5315 5312 5309 5306 5303 5300 5296 5293 5290 5287 5284 5281 5279 5276 5273 5270 5267 5264 5260 5257 5254 5251 5248 5245 5242 5238 5235 5232 5229 5226 5223 5220 5217 5214 5211 5208 5205 5202 5200 5197 5194 5192 5189 5187 5184 5182 5179 5177 5175 5173 5170 5168 5166 5164 5162 5161 5159
5439 5434 5429 5424 5419 5414 5410 5405 5401 5397 5392 5388 5384 5380 5376 5371 5367 5363 5359 5355 5351 5347 5343 5339 5335 5332 5328 5325 5322 5318 5315 5312 5309 5306 5303 5300 5297 5294 5291 5288 5285 5282 5279 5276 5273 5270 5267 5263 5260 5257 5254 5251 5248 5245 5242 5239 5236 5232 5229 5226 5223 5220 5217 5214 5211 5208 5206 5203 5200 5197 5195 5192 5190 5187 5185 5183 5180 5178 5176 5174 5172 5170 5168 5166 5164
5439 5434 5430 5425 5420 5416 5411 5407 5403 5399 5395 5391 5387 5383 5379 5375 5371 5367 5363 5360 5356 5352 5348 5344 5341 5337 5334 5330 5327 5324 5321 5318 5315 5312 5309 5306 5303 5300 5297 5294 5291 5288 5285 5282 5279 5276 5272 5269 5266 5263 5260 5257 5254 5251 5248 5245 5241 5238 5235 5232 5229 5226 5223 5220 5217 5214 5211 5208 5206 5203 5200 5197 5195 5192 5190 5188 5185 5183 5181 5178 5176 5174 5172 5170 5168
5439 5435 5430 5426 5421 5417 5412 5408 5405 5401 5397 5393 5389 5385 5381 5378 5374 5371 5367 5364 5360 5357 5353 5350 5346 5343 5340 5336 5333 5330 5327 5324 5321 5318 5315 5312 5309 5306 5303 5300 5297 5293 5290 5287 5284 5281 5278 5275 5272 5268 5265 5262 5259 5256 5253 5250 5246 5243 5240 5237 5234 5231 5228 5225 5222 5219 5216 5213 5210 5207 5205 5202 5199 5197 5194 5192 5189 5187 5185 5182 5180 5178 5176 5174 5172
5439 5435 5431 5426 5422 5418 5414 5410 5406 5403 5399 5396 5392 5388 5385 5381 5378 5375 5371 5368 5365 5361 5358 5355 5352 5348 5345 5342 5339 5336 5332 5329 5326 5323 5320 5317 5314 5311 5308 5304 5301 5298 5295 5292 5289 5286 5283 5279 5276 5273 5270 5267 5264 5260 5257 5254 5251 5248 5245 5241 5238 5235 5232 5229 5226 5223 5221 5218 5215 5212 5209 5206 5203 5201 5198 5196 5193 5191 5188 5186 5184 5182 5180 5178 5176
5440 5435 5431 5427 5423 5419 5415 5412 5408 5405 5402 5398 5395 5391 5388 5385 5382 5379 5376 5372 5369 5366 5363 5360 5356 5353 5350 5347 5344 5340 5337 5334 5331 5328 5325 5321 5318 5315 5312 5309 5306 5303 5299 5296 5293 5290 5287 5284 5281 5277 5274 5271 5268 5265 5262 5259 5255 5252 5249 5246 5243 5239 5236 5233 5230 5227 5224 5221 5218 5215 5212 5210 5207 5204 5202 5199 5197 5194 5192 5189 5187 5185 5183 5181 5179
5440 5436 5431 5427 5424 5420 5417 5413 5410 5407 5404 5401 5397 5394 5391 5388 5385 5382 5379 5376 5373 5370 5367 5364 5361 5357 5354 5351 5348 5345 5341 5338 5335 5332 5329 5326 5322 5319 5316 5313 5310 5307 5304 5300 5297 5294 5291 5288 5285 5282 5278 5275 5272 5269 5266 5263 5260 5256 5253 5250 5247 5244 5240 5237 5234 5231 5228 5225 5222 5219 5216 5213 5211 5208 5205 5202 5200 5197 5195 5192 5190 5188 5186 5184 5182
5440 5436 5432 5428 5425 5422 5418 5415 5412 5409 5406 5403 5400 5397 5394 5391 5389 5386 5383 5380 5377 5373 5370 5367 5364 5361 5358 5355 5351 5348 5345 5342 5338 5335 5332 5329 5326 5323 5320 5317 5313 5310 5307 5304 5301 5298 5295 5291 5288 5285 5282 5279 5276 5273 5269 5266 5263 5260 5257 5254 5251 5248 5244 5241 5238 5235 5232 5228 5225 5222 5219 5217 5214 5211 5208 5206 5203 5200 5197 5195 5193 5190 5188 5186 5184
5440 5436 5433 5429 5426 5423 5420 5417 5414 5412 5409 5406 5403 5400 5397 5394 5391 5389 5386 5383 5380 5377 5373 5370 5367 5364 5361 5358 5354 5351 5348 5345 5342 5338 5335 5332 5329 5326 5323 5320 5316 5313 5310 5307 5304 5301 5298 5294 5291 5288 5285 5282 5279 5276 5272 5269 5266 5263 5260 5257 5254 5251 5247 5244 5241 5238 5235 5231 5228 5225 5222 5219 5216 5214 5211 5208 5206 5203 5200 5197 5195 5192 5190 5188 5186
5440 5437 5434 5430 5427 5425 5422 5419 5416 5414 5411 5408 5405 5402 5400 5397 5394 5391 5388 5385 5382 5379 5376 5373 5370 5367 5364 5361 5357 5354 5351 5348 5344 5341 5338 5335 5332 5329 5326 5322 5319 5316 5313 5310 5306 5303 5300 5297 5294 5291 5287 5284 5281 5278 5275 5272 5269 5266 5262 5259 5256 5253 5250 5247 5243 5240 5237 5234 5231 5228 5225 5222 5219 5216 5213 5210 5208 5205 5202 5200 5197 5195 5192 5190 5188
5441 5437 5434 5431 5429 5426 5423 5421 5418 5416 5413 5410 5408 5405 5402 5400 5397 5394 5391 5388 5385 5382 5379 5376 5373 5370 5366 5363 5360 5357 5353 5350 5347 5344 5341 5337 5334 5331 5328 5325 5321 5318 5315 5312 5309 5305 5302 5299 5296 5292 5289 5286 5283 5280 5276 5273 5270 5267 5264 5261 5258 5255 5252 5249 5245 5242 5239 5236 5233 5230 5227 5224 5221 5218 5215 5212 5209 5207 5204 5202 5199 5197 5195 5192 5190
5441 5438 5435 5432 5430 5427 5425 5422 5420 5417 5415 5412 5410 5407 5404 5402 5399 5396 5394 5391 5388 5385 5382 5379 5375 5372 5369 5366 5363 5359 5356 5353 5349 5346 5343 5340 5336 5333 5330 5327 5323 5320 5317 5313 5310 5307 5304 5300 5297 5294 5291 5287 5284 5281 5278 5275 5271 5268 5265 5262 5259 5256 5253 5250 5247 5244 5241 5238 5235 5232 5229 5226 5223 5220 5217 5214 5211 5208 5206 5203 5201 5198 5196 5194 5192
5441 5439 5436 5433 5431 5429 5426 5424 5421 5419 5416 5414 5411 5409 5406 5403 5401 5398 5395 5392 5390 5387 5384 5380 5377 5374 5371 5368 5365 5361 5358 5355 5351 5348 5345 5341 5338 5335 5331 5328 5325 5321 5318 5315 5311 5308 5305 5301 5298 5295 5292 5288 5285 5282 5279 5275 5272 5269 5266 5263 5260 5257 5254 5251 5248 5245 5242 5239 5236 5233 5230 5227 5224 5222 5218 5215 5212 5209 5207 5204 5202 5200 5197 5195 5193
5442 5439 5437 5434 5432 5429 5427 5425 5422 5420 5418 5415 5413 5410 5407 5405 5402 5400 5397 5394 5391 5388 5385 5382 5379 5376 5373 5369 5366 5363 5359 5356 5353 5349 5346 5343 5339 5336 5332 5329 5326 5322 5319 5315 5312 5309 5305 5302 5299 5295 5292 5289 5285 5282 5279 5276 5273 5269 5266 5263 5260 5257 5254 5251 5248 5245 5242 5240 5237 5234 5231 5228 5225 5223 5220 5217 5213 5210 5207 5205 5203 5200 5198 5196 5194